Oconto, WI

6:00 AM CST on December 07, 2019 (GMT -0600)
Oconto Municipal

Weather History for KOCQ - October, 2019

Change the Weather History Date:

Tuesday, October 22, 2019

  Actual Average Record
Temperature  
Mean Temperature 46 °F -  
Max Temperature 49 °F 54 °F 62 °F (2017)
Min Temperature 42 °F 34 °F 24 °F (2018)
Degree Days  
Heating Degree Days 20    
Moisture  
Dew Point 40 °F    
Average Humidity 81    
Maximum Humidity 95    
Minimum Humidity 73    
Precipitation  
Precipitation 0.08 in - - ()
Sea Level Pressure  
Sea Level Pressure 29.35 in    
Wind  
Wind Speed 12 mph (SW)    
Max Wind Speed 22 mph    
Max Gust Speed 30 mph    
Visibility 10 miles    
Events      
Averages and records for this station are not official NWS values.
T = Trace of Precipitation, MM = Missing Value Source: NWS Daily Summary

Daily Weather History Graph

Daily Weather History Graph

Search for Another Location

Airport or City:

Astronomy

Oct. 22, 2019 Rise Set
Actual Time 7:16 AM CDT 5:55 PM CDT
Civil Twilight 6:46 AM CDT 6:25 PM CDT
Nautical Twilight 6:12 AM CDT 6:59 PM CDT
Astronomical Twilight 5:38 AM CDT 7:33 PM CDT
Moon 12:03 AM CDT (10/22) 3:24 PM CDT (10/22)
Length of Visible Light 11h 39m
Length of Day
10h 39m
Last Quarter, 37% of the Moon is Illuminated
Oct 22
Last Quarter
Oct 27
New
Nov 4
First Quarter
Nov 12
Full
Nov 19
Last Quarter

Hourly Weather History & Observations

Time (CDT) Temp. Windchill Dew Point Humidity Pressure Visibility Wind Dir Wind Speed Gust Speed Precip Events Conditions
12:15 AM 49.1 °F - 41.0 °F 74% 29.36 in 10.0 mi South 6.9 mph - N/A   Mostly Cloudy
12:35 AM 49.6 °F - 41.2 °F 73% 29.36 in 10.0 mi South 9.2 mph - N/A   Overcast
12:55 AM 49.5 °F - 41.0 °F 73% 29.35 in 10.0 mi South 8.1 mph - N/A   Overcast
1:15 AM 49.5 °F - 41.0 °F 73% 29.35 in 10.0 mi South 8.1 mph - N/A   Overcast
1:35 AM 49.3 °F - 41.2 °F 74% 29.34 in 10.0 mi SSE 9.2 mph - N/A   Overcast
1:55 AM 49.1 °F - 41.4 °F 75% 29.33 in 10.0 mi SSE 9.2 mph - N/A   Overcast
2:15 AM 49.1 °F - 41.4 °F 75% 29.33 in 10.0 mi SSE 11.5 mph 17.3 mph N/A   Overcast
2:35 AM 49.3 °F - 41.7 °F 75% 29.32 in 10.0 mi SSE 12.7 mph 20.7 mph N/A   Overcast
2:55 AM 49.5 °F - 41.9 °F 75% 29.30 in 10.0 mi SSE 12.7 mph - N/A   Overcast
3:15 AM 49.6 °F - 41.9 °F 75% 29.29 in 10.0 mi SSE 11.5 mph 21.9 mph N/A   Overcast
3:35 AM 49.6 °F - 41.9 °F 75% 29.27 in 10.0 mi SSE 11.5 mph 20.7 mph N/A   Overcast
3:55 AM 49.5 °F - 41.9 °F 75% 29.26 in 10.0 mi SSE 15.0 mph 23.0 mph N/A   Overcast
4:15 AM 49.5 °F - 42.3 °F 76% 29.26 in 10.0 mi SSE 13.8 mph 24.2 mph N/A   Overcast
4:35 AM 48.2 °F - 42.8 °F 82% 29.25 in 10.0 mi South 16.1 mph 24.2 mph N/A   Overcast
5:15 AM 45.9 °F 41.2 °F 42.1 °F 87% 29.25 in 10.0 mi SSW 9.2 mph 19.6 mph N/A   Overcast
5:35 AM 45.5 °F 41.3 °F 42.1 °F 88% 29.24 in 10.0 mi South 8.1 mph - 0.01 in   Overcast
5:55 AM 45.7 °F 42.0 °F 43.0 °F 90% 29.24 in 10.0 mi South 6.9 mph - 0.01 in   Overcast
6:15 AM 45.5 °F 40.3 °F 42.8 °F 90% 29.23 in 10.0 mi SSE 10.4 mph 17.3 mph N/A   Overcast
6:35 AM 45.7 °F 40.6 °F 43.0 °F 90% 29.22 in 7.0 mi WSW 10.4 mph 20.7 mph 0.01 in   Overcast
6:55 AM 44.8 °F 39.4 °F 42.1 °F 90% 29.22 in 10.0 mi SSW 10.4 mph 17.3 mph 0.06 in   Overcast
7:15 AM 44.1 °F 39.0 °F 41.7 °F 91% 29.21 in 7.0 mi SSW 9.2 mph - N/A   Overcast
7:35 AM 43.9 °F 39.3 °F 41.9 °F 93% 29.21 in 10.0 mi South 8.1 mph - N/A   Overcast
7:55 AM 43.9 °F 39.3 °F 42.1 °F 93% 29.21 in 10.0 mi SSW 8.1 mph - N/A   Overcast
8:15 AM 44.1 °F 38.1 °F 42.1 °F 93% 29.21 in 10.0 mi SW 11.5 mph - N/A   Overcast
8:35 AM 43.9 °F 39.9 °F 42.3 °F 94% 29.23 in 3.0 mi SW 6.9 mph - N/A   Overcast
8:55 AM 43.7 °F 39.7 °F 42.3 °F 95% 29.23 in 4.0 mi WSW 6.9 mph - N/A   Overcast
9:15 AM 44.1 °F 39.0 °F 42.8 °F 95% 29.24 in 10.0 mi WSW 9.2 mph - N/A   Overcast
9:35 AM 44.1 °F 40.1 °F 42.3 °F 93% 29.25 in 3.0 mi WSW 6.9 mph - 0.01 in   Overcast
9:55 AM 44.6 °F 38.4 °F 42.1 °F 91% 29.25 in 10.0 mi WSW 12.7 mph - 0.01 in   Overcast
10:15 AM 44.4 °F 37.9 °F 41.2 °F 88% 29.26 in 7.0 mi SW 13.8 mph - N/A   Overcast
10:35 AM 44.6 °F 38.4 °F 42.6 °F 93% 29.27 in 10.0 mi WSW 12.7 mph 17.3 mph N/A   Overcast
10:55 AM 45.5 °F 38.3 °F 41.4 °F 85% 29.29 in 10.0 mi WSW 17.3 mph 23.0 mph N/A   Overcast
11:15 AM 44.8 °F 38.7 °F 41.0 °F 87% 29.29 in 7.0 mi WSW 12.7 mph - N/A   Overcast
11:35 AM 45.5 °F 41.8 °F 42.1 °F 88% 29.30 in 10.0 mi SW 6.9 mph 19.6 mph N/A   Overcast
11:55 AM 45.7 °F 40.2 °F 42.6 °F 89% 29.30 in 10.0 mi SW 11.5 mph 17.3 mph N/A   Overcast
12:35 PM 46.0 °F 39.3 °F 42.6 °F 88% 29.31 in 10.0 mi SW 16.1 mph 25.3 mph N/A   Overcast
12:55 PM 46.6 °F - 41.7 °F 83% 29.32 in 10.0 mi WSW 18.4 mph 26.5 mph N/A   Overcast
1:15 PM 46.9 °F - 41.0 °F 80% 29.32 in 10.0 mi WSW 17.3 mph 24.2 mph N/A   Overcast
1:35 PM 46.6 °F - 40.8 °F 80% 29.33 in 10.0 mi WSW 18.4 mph 26.5 mph N/A   Overcast
1:55 PM 46.6 °F - 41.0 °F 81% 29.33 in 10.0 mi SW 17.3 mph 26.5 mph N/A   Overcast
2:15 PM 47.8 °F - 40.5 °F 76% 29.34 in 10.0 mi SW 12.7 mph 27.6 mph N/A   Overcast
2:35 PM 48.0 °F - 40.1 °F 74% 29.35 in 10.0 mi WSW 20.7 mph 26.5 mph N/A   Overcast
2:55 PM 47.3 °F - 39.6 °F 74% 29.36 in 10.0 mi WSW 13.8 mph 24.2 mph N/A   Overcast
3:15 PM 46.9 °F - 38.7 °F 73% 29.37 in 10.0 mi WSW 18.4 mph 28.8 mph N/A   Overcast
3:35 PM 46.4 °F 39.2 °F 38.5 °F 74% 29.38 in 10.0 mi West 18.4 mph 28.8 mph N/A   Overcast
3:55 PM 46.4 °F 39.8 °F 39.0 °F 75% 29.39 in 10.0 mi WSW 16.1 mph 25.3 mph N/A   Overcast
4:15 PM 45.5 °F 38.6 °F 39.0 °F 78% 29.41 in 10.0 mi WSW 16.1 mph 28.8 mph N/A   Overcast
4:35 PM 45.5 °F 38.3 °F 38.3 °F 76% 29.42 in 10.0 mi WSW 17.3 mph 28.8 mph N/A   Overcast
4:55 PM 45.0 °F 37.9 °F 38.3 °F 77% 29.43 in 10.0 mi WSW 16.1 mph 25.3 mph N/A   Overcast
5:15 PM 44.8 °F 36.4 °F 37.8 °F 76% 29.43 in 10.0 mi WSW 21.9 mph 26.5 mph N/A   Overcast
5:35 PM 44.8 °F 38.0 °F 37.8 °F 76% 29.44 in 10.0 mi WSW 15.0 mph 24.2 mph N/A   Overcast
5:55 PM 44.6 °F 37.4 °F 37.6 °F 76% 29.46 in 10.0 mi WSW 16.1 mph 29.9 mph N/A   Overcast
6:15 PM 44.6 °F 37.8 °F 37.4 °F 76% 29.46 in 10.0 mi WSW 15.0 mph 25.3 mph N/A   Overcast
6:35 PM 44.2 °F 37.6 °F 37.4 °F 77% 29.48 in 10.0 mi WSW 13.8 mph 25.3 mph N/A   Overcast
6:55 PM 44.2 °F 37.0 °F 37.0 °F 76% 29.48 in 10.0 mi WSW 16.1 mph 24.2 mph N/A   Overcast
7:15 PM 44.1 °F 37.7 °F 36.9 °F 76% 29.49 in 10.0 mi West 12.7 mph 23.0 mph N/A   Overcast
7:35 PM 44.1 °F 37.1 °F 36.9 °F 76% 29.49 in 10.0 mi WSW 15.0 mph 24.2 mph N/A   Overcast
7:55 PM 43.9 °F 36.2 °F 36.5 °F 75% 29.51 in 10.0 mi WSW 17.3 mph 23.0 mph N/A   Overcast
8:15 PM 43.7 °F 36.6 °F 36.1 °F 75% 29.51 in 10.0 mi West 15.0 mph 24.2 mph N/A   Overcast
8:35 PM 43.3 °F 35.8 °F 36.1 °F 76% 29.51 in 10.0 mi WSW 16.1 mph 25.3 mph N/A   Overcast
8:55 PM 43.0 °F 35.7 °F 36.0 °F 76% 29.52 in 10.0 mi West 15.0 mph 24.2 mph N/A   Overcast
9:15 PM 43.0 °F 36.0 °F 35.6 °F 75% 29.52 in 10.0 mi WSW 13.8 mph 24.2 mph N/A   Overcast
9:35 PM 43.0 °F 34.8 °F 35.2 °F 74% 29.53 in 10.0 mi West 18.4 mph 27.6 mph N/A   Overcast
10:15 PM 43.0 °F 36.4 °F 35.1 °F 74% 29.54 in 10.0 mi West 12.7 mph 21.9 mph N/A   Overcast
10:55 PM 42.4 °F 35.7 °F 35.6 °F 77% 29.55 in 10.0 mi WSW 12.7 mph 16.1 mph N/A   Overcast
11:15 PM 42.4 °F 34.7 °F 35.2 °F 76% 29.55 in 10.0 mi West 16.1 mph 20.7 mph N/A   Overcast
11:35 PM 42.3 °F 34.8 °F 34.9 °F 75% 29.55 in 10.0 mi WSW 15.0 mph 20.7 mph N/A   Overcast